Weather History for KSMN - September, 2013

Change the Weather History Date:

Monday, September 30, 2013

  Actual Average Record
Temperature  
Mean Temperature 47 °F -  
Max Temperature 57 °F 65 °F 84 °F (1992)
Min Temperature 37 °F 32 °F 20 °F (1985)
Degree Days  
Heating Degree Days 18    
Moisture  
Dew Point 36 °F    
Average Humidity 71    
Maximum Humidity 100    
Minimum Humidity 26    
Precipitation  
Precipitation 0.67 in - - ()
Sea Level Pressure  
Sea Level Pressure 29.80 in    
Wind  
Wind Speed 4 mph (NW)    
Max Wind Speed 22 mph    
Max Gust Speed 30 mph    
Visibility 9 miles    
Events      
Averages and records for this station are not official NWS values.
T = Trace of Precipitation, MM = Missing Value Source: NWS Daily Summary

Daily Weather History Graph

Daily Weather History Graph

Search for Another Location

Airport or City:

Trip Planner

Search our weather history database for the weather conditions in past years. The results will help you decide how hot, cold, wet, or windy it might be!

Date:

Astronomy

Sep. 30, 2013 Rise Set
Actual Time 7:32 AM MDT 7:17 PM MDT
Civil Twilight 7:03 AM MDT 7:46 PM MDT
Nautical Twilight 6:29 AM MDT 8:20 PM MDT
Astronomical Twilight 5:54 AM MDT 8:55 PM MDT
Moon 3:03 AM MDT (9/30) 4:58 PM MDT (9/30)
Length of Visible Light 12h 43m
Length of Day
11h 44m
Waning Crescent, 18% of the Moon is Illuminated
Sep 30
Waning Crescent
Oct 4
New
Oct 11
First Quarter
Oct 18
Full
Oct 26
Last Quarter

Hourly Weather History & Observations

Time (MDT) Temp. Windchill Dew Point Humidity Pressure Visibility Wind Dir Wind Speed Gust Speed Precip Events Conditions
12:15 AM 44.6 °F - 42.8 °F 93% 29.79 in 10.0 mi Calm Calm - 0.03 in   Overcast
12:35 AM 44.6 °F - 42.8 °F 93% 29.78 in 5.0 mi Calm Calm - 0.07 in   Overcast
12:55 AM 44.6 °F - 42.8 °F 93% 29.77 in 10.0 mi Calm Calm - 0.08 in   Overcast
1:15 AM 44.6 °F - 42.8 °F 93% 29.76 in 10.0 mi Calm Calm - 0.02 in   Overcast
1:35 AM 44.6 °F - 42.8 °F 93% 29.76 in 10.0 mi Calm Calm - 0.03 in   Overcast
1:55 AM 44.6 °F - 42.8 °F 93% 29.75 in 10.0 mi Calm Calm - 0.05 in   Overcast
2:15 AM 44.6 °F - 42.8 °F 93% 29.75 in 10.0 mi Calm Calm - 0.04 in   Overcast
2:35 AM 44.6 °F - 42.8 °F 93% 29.74 in 8.0 mi Calm Calm - 0.08 in   Overcast
2:55 AM 44.6 °F - 42.8 °F 93% 29.73 in 9.0 mi Calm Calm - 0.11 in   Overcast
3:15 AM 44.6 °F - 42.8 °F 93% 29.73 in 5.0 mi Calm Calm - 0.03 in   Overcast
3:35 AM 44.6 °F - 42.8 °F 93% 29.71 in 10.0 mi Calm Calm - 0.06 in   Overcast
3:55 AM 44.6 °F - 42.8 °F 93% 29.70 in 8.0 mi Calm Calm - 0.09 in   Overcast
4:15 AM 44.6 °F 43.1 °F 42.8 °F 93% 29.70 in 10.0 mi NNE 3.5 mph - N/A   Overcast
4:35 AM 44.6 °F - 42.8 °F 93% 29.69 in 10.0 mi Calm Calm - N/A   Overcast
4:55 AM 44.6 °F 41.4 °F 42.8 °F 93% 29.68 in 10.0 mi NNW 5.8 mph - N/A   Overcast
5:15 AM 42.8 °F 41.1 °F 42.8 °F 100% 29.68 in 10.0 mi North 3.5 mph - N/A   Overcast
5:35 AM 42.8 °F 40.1 °F 42.8 °F 100% 29.67 in 10.0 mi NNW 4.6 mph - N/A   Overcast
5:55 AM 44.6 °F - 42.8 °F 93% 29.66 in 8.0 mi Calm Calm - N/A   Overcast
6:15 AM 42.8 °F - 42.8 °F 100% 29.65 in 9.0 mi Calm Calm - N/A   Mostly Cloudy
6:35 AM 42.8 °F - 42.8 °F 100% 29.64 in 5.0 mi Calm Calm - N/A   Overcast
6:55 AM 42.8 °F - 42.8 °F 100% 29.62 in 0.8 mi Calm Calm - N/A   Overcast
7:15 AM 42.8 °F 39.3 °F 39.2 °F 87% 29.61 in 0.8 mi NW 5.8 mph - N/A   Overcast
7:35 AM 42.8 °F - 41.0 °F 93% 29.61 in 0.2 mi Calm Calm - N/A   Overcast
7:55 AM 42.8 °F 40.1 °F 41.0 °F 93% 29.62 in 0.2 mi North 4.6 mph - 0.01 in   Overcast
8:15 AM 44.6 °F 37.8 °F 42.8 °F 93% 29.65 in 7.0 mi North 15.0 mph 19.6 mph N/A   Overcast
8:35 AM 42.8 °F 33.8 °F 39.2 °F 87% 29.66 in 10.0 mi NNE 21.9 mph 29.9 mph 0.01 in   Overcast
8:55 AM 42.8 °F 34.0 °F 39.2 °F 87% 29.70 in 4.0 mi North 20.7 mph 28.8 mph 0.09 in   Overcast
9:15 AM 42.8 °F 34.8 °F 37.4 °F 81% 29.73 in 5.0 mi NNE 17.3 mph 27.6 mph 0.07 in   Overcast
9:35 AM 41.0 °F 36.4 °F 37.4 °F 87% 29.76 in 6.0 mi NNE 6.9 mph - 0.13 in   Overcast
9:55 AM 41.0 °F 37.1 °F 37.4 °F 87% 29.79 in 9.0 mi SW 5.8 mph - 0.18 in   Overcast
10:15 AM 41.0 °F 38.0 °F 37.4 °F 87% 29.80 in 10.0 mi SW 4.6 mph - 0.03 in   Overcast
10:35 AM 41.0 °F 38.0 °F 37.4 °F 87% 29.81 in 10.0 mi WSW 4.6 mph - 0.04 in   Mostly Cloudy
10:55 AM 42.8 °F 40.1 °F 39.2 °F 87% 29.81 in 5.0 mi South 4.6 mph - 0.05 in   Overcast
11:15 AM 42.8 °F 41.1 °F 37.4 °F 81% 29.82 in 10.0 mi WSW 3.5 mph - 0.01 in   Mostly Cloudy
11:35 AM 42.8 °F 38.6 °F 37.4 °F 81% 29.80 in 10.0 mi SE 6.9 mph - 0.01 in   Overcast
11:55 AM 44.6 °F - 37.4 °F 76% 29.79 in 10.0 mi Calm Calm - 0.01 in   Scattered Clouds
12:15 PM 46.4 °F 45.2 °F 41.0 °F 81% 29.79 in 10.0 mi WNW 3.5 mph - N/A   Clear
12:35 PM 46.4 °F 45.2 °F 39.2 °F 76% 29.79 in 10.0 mi NNE 3.5 mph - N/A   Partly Cloudy
12:55 PM 48.2 °F - 41.0 °F 76% 29.79 in 10.0 mi NNE 3.5 mph - N/A   Partly Cloudy
1:15 PM 51.8 °F - 44.6 °F 76% 29.79 in 10.0 mi NNW 5.8 mph - N/A   Partly Cloudy
1:35 PM 53.6 °F - 42.8 °F 67% 29.79 in 10.0 mi North 8.1 mph - N/A   Clear
1:55 PM 53.6 °F - 44.6 °F 72% 29.79 in 10.0 mi NNW 8.1 mph - N/A   Scattered Clouds
2:15 PM 55.4 °F - 42.8 °F 63% 29.79 in 10.0 mi NNE 5.8 mph - N/A   Mostly Cloudy
2:35 PM 57.2 °F - 37.4 °F 48% 29.79 in 10.0 mi NNW 9.2 mph - N/A   Overcast
2:55 PM 55.4 °F - 30.2 °F 38% 29.80 in 10.0 mi NNW 4.6 mph - N/A   Mostly Cloudy
3:15 PM 57.2 °F - 24.8 °F 29% 29.81 in 10.0 mi WNW 13.8 mph 24.2 mph N/A   Scattered Clouds
3:35 PM 55.4 °F - 24.8 °F 31% 29.82 in 10.0 mi WNW 13.8 mph - N/A   Partly Cloudy
3:55 PM 57.2 °F - 26.6 °F 31% 29.83 in 10.0 mi West 13.8 mph 18.4 mph N/A   Partly Cloudy
4:15 PM 55.4 °F - 21.2 °F 26% 29.84 in 10.0 mi West 13.8 mph - N/A   Clear
4:35 PM 55.4 °F - 26.6 °F 33% 29.85 in 10.0 mi West 13.8 mph - N/A   Clear
4:55 PM 53.6 °F - 26.6 °F 35% 29.86 in 10.0 mi West 4.6 mph - N/A   Partly Cloudy
5:15 PM 55.4 °F - 28.4 °F 36% 29.87 in 10.0 mi WSW 4.6 mph - N/A   Clear
5:35 PM 53.6 °F - 26.6 °F 35% 29.87 in 10.0 mi West 9.2 mph - N/A   Partly Cloudy
5:55 PM 55.4 °F - 28.4 °F 36% 29.88 in 10.0 mi SW 5.8 mph - N/A   Mostly Cloudy
6:15 PM 53.6 °F - 28.4 °F 38% 29.89 in 10.0 mi SW 9.2 mph - N/A   Overcast
6:35 PM 53.6 °F - 28.4 °F 38% 29.90 in 10.0 mi SW 9.2 mph - N/A   Mostly Cloudy
6:55 PM 51.8 °F - 26.6 °F 38% 29.91 in 10.0 mi WSW 8.1 mph - N/A   Partly Cloudy
7:15 PM 51.8 °F - 24.8 °F 35% 29.92 in 10.0 mi West 11.5 mph 18.4 mph N/A   Mostly Cloudy
7:35 PM 51.8 °F - 24.8 °F 35% 29.93 in 10.0 mi WNW 5.8 mph - N/A   Mostly Cloudy
7:55 PM 50.0 °F - 26.6 °F 40% 29.94 in 10.0 mi WSW 6.9 mph - N/A   Scattered Clouds
8:15 PM 46.4 °F - 26.6 °F 46% 29.94 in 10.0 mi Calm Calm - N/A   Clear
8:35 PM 46.4 °F - 26.6 °F 46% 29.95 in 10.0 mi Calm Calm - N/A   Clear
8:55 PM 44.6 °F - 28.4 °F 53% 29.96 in 10.0 mi Calm Calm - N/A   Clear
9:15 PM 41.0 °F 38.0 °F 30.2 °F 65% 29.97 in 10.0 mi SSE 4.6 mph - N/A   Clear
9:35 PM 41.0 °F 38.0 °F 30.2 °F 65% 29.97 in 10.0 mi SE 4.6 mph - N/A   Clear
9:55 PM 41.0 °F 36.4 °F 30.2 °F 65% 29.98 in 10.0 mi SE 6.9 mph - N/A   Clear
10:15 PM 41.0 °F 37.1 °F 30.2 °F 65% 29.98 in 10.0 mi SSE 5.8 mph - N/A   Clear
10:35 PM 39.2 °F - 30.2 °F 70% 29.99 in 10.0 mi Calm Calm - N/A   Clear
10:55 PM 39.2 °F 35.9 °F 28.4 °F 65% 29.99 in 10.0 mi SE 4.6 mph - N/A   Clear
11:15 PM 39.2 °F 37.0 °F 28.4 °F 65% 30.00 in 10.0 mi ESE 3.5 mph - N/A   Partly Cloudy
11:35 PM 37.4 °F - 28.4 °F 70% 30.00 in 10.0 mi Calm Calm - N/A   Partly Cloudy
11:55 PM 37.4 °F - 30.2 °F 75% 30.00 in 10.0 mi Calm Calm - N/A   Clear